Regional Weather Roundup
Issued by NWS Albany, NY

Home | Current Version | Previous Version | Graphics & Text | Print | Product List | Glossary On
Versions: 1 2 3 4 5 6 7 8 9 10 11 12 13 14 15 16 17 18 19 20 21 22 23 24 25 26 27 28 29 30 31 32 33 34 35 36 37 38 39 40 41 42 43 44 45 46 47 48 49 50
000
ASUS41 KALY 212310
RWRALY

NEW YORK STATE HOURLY WEATHER ROUNDUP
NATIONAL WEATHER SERVICE ALBANY NY
700 PM EDT THU SEP 21 2017

NOTE: "FAIR" INDICATES FEW OR NO CLOUDS BELOW 12,000 FEET WITH NO
SIGNIFICANT WEATHER AND/OR NO OBSTRUCTIONS TO VISIBILITY.

NYZ032-033-038>043-046>054-057>066-NYZ062>081-082-084-220000-
EAST


CITY           SKY/WX    TMP DP  RH WIND       PRES   REMARKS
ALBANY         CLOUDY    73  59  61 NE5       30.06S
GLENS FALLS    MOCLDY    70  58  65 N6        30.07S
POUGHKEEPSIE   CLOUDY    73  61  65 N6        30.02R
NEWBURGH       MOCLDY    75  64  69 NE5       30.05R
MONTGOMERY     PTCLDY    70  66  87 N5        30.03R
WHITE PLAINS   CLOUDY    73  65  75 N7        30.01S
ISLIP          CLOUDY    73  60  63 N10       29.98S
NEW YORK CITY  CLOUDY    77  64  64 N8        29.99S
CENTRAL PARK   MOCLDY    77  61  57 VRB7      30.02S
$$

NYZ005>009-017-018-044>046-055-056-220000-
CENTRAL


CITY           SKY/WX    TMP DP  RH WIND       PRES   REMARKS
FULTON         PTCLDY    72  61  68 N7        30.10S
SYRACUSE       CLOUDY    73  64  73 NW7       30.08R
ROME           PTCLDY    74  66  76 N5        30.08R
ELMIRA         PTCLDY    75  62  64 NE7       30.09R
BINGHAMTON     CLOUDY    71  60  68 N7        30.11R
MONTICELLO     PTCLDY    72  54  53 NE10      30.09S
$$

NYZ026>034-041>043-087-220000-
NORTH


CITY           SKY/WX    TMP DP  RH WIND       PRES   REMARKS
WATERTOWN      CLOUDY    72  62  71 NE6       30.10S
FORT DRUM      NOT AVBL
OGDENSBURG     FAIR      69  60  71 E3        30.12R
MASSENA        CLEAR     69  53  56 NE3       30.13S
SARANAC LAKE   CLOUDY    62  52  69 CALM      30.16R
PLATTSBURGH    CLOUDY    72  52  49 N10       30.12R
$$

NYZ001>004-010>016-019>021-085-220000-
WEST


CITY           SKY/WX    TMP DP  RH WIND       PRES   REMARKS
NIAGARA FALLS  CLEAR     77  63  61 NE10      30.09S
BUFFALO        PTCLDY    77  66  68 NE10      30.10R
DUNKIRK        CLEAR     73  64  73 CALM      30.09S
JAMESTOWN      CLEAR     73  63  70 NW7       30.14S
WELLSVILLE     CLEAR     74  59  59 N5        30.17R
ROCHESTER      PTCLDY    73  62  68 NE5       30.11S
PENN YAN       CLOUDY    75  63  66 VRB6      30.12R
$$

             KEY
       WCI = WIND CHILL INDEX
       VSB = VISIBILITY
       HX  = HEAT INDEX
$$



USA.gov is the U.S. government's official web portal to all federal, state and local government web resources and services.